User: anonymous   Login
Location: Albany
(35.0000°S, 118.0000°E)
Time: 22:30:42
(UTC-04:00)
Language:

Transit 2A - Orbit

View from above orbital plane
View from above orbital plane
View from above satellite
View from above satellite

Ground track
Ground track

The orbit data is extracted from the following two-line orbital elements,

1 00045U 60007A   15242.51280626  .00000108  00000-0  54426-4 0  9990
2 00045 066.6959 319.5581 0253006 152.9845 208.4691 14.33389123871445
Epoch (UTC): 30 August 2015 12:18:26
Eccentricity: 0.0253006
inclination: 66.6959°
perigee height: 599 km
apogee height: 961 km
right ascension of ascending node: 319.5581°
argument of perigee: 152.9845°
revolutions per day: 14.33389123
mean anomaly at epoch: 208.4691°
orbit number at epoch: 87144

The dashed part of the orbit path shows where the satellite is in the earth's shadow,  

DLR